Location: Campbell River
(50.0170°N, 125.2500°W)
Time: 15:15:17
(UTC-07:00)

Daily predictions for brighter satellites

Satellite Brightness Start Highest point End
(mag) Time Altitude Azimuth Time Altitude Azimuth Time Altitude Azimuth
USA 234 4.1 22:07:53 10° ENE 22:14:15 57° NNW 22:20:38 10° W
SPOT 5 3.4 22:14:05 10° S 22:18:39 60° W 22:23:32 10° NNW
COSMOS 2428 2.9 22:13:04 10° NNW 22:18:46 74° WSW 22:24:26 10° SSE
USA 229 DEB 3.9 22:11:52 10° SW 22:18:50 85° NW 22:25:56 10° NE
USA 229 3.9 22:11:58 10° SW 22:18:56 85° NW 22:26:02 10° NE
MetOp-A 4.4 22:16:39 10° S 22:22:00 72° WSW 22:27:23 10° NNW
Cosmos 2297 Rocket 3.9 22:22:10 10° SE 22:25:07 15° E 22:28:04 10° ENE
Cosmos 2219 Rocket 2.3 22:20:53 10° NNW 22:26:30 72° ENE 22:32:06 10° SE
Cosmos 1437 3.4 22:25:03 10° SSW 22:28:17 59° WNW 22:31:34 10° N
Cosmos 1726 2.2 22:24:35 10° N 22:28:24 83° E 22:32:11 10° SSE
ARGOS 3.2 22:23:30 10° SSE 22:28:55 82° ENE 22:34:20 10° NNW
Cosmos 1328 4.2 22:30:23 10° SSW 22:34:19 65° WNW 22:38:17 10° N
NOSS 3-1 (A) 3.8 22:32:41 10° S 22:38:20 46° ESE 22:44:36 10° NE
Cosmos 1745 Rocket 4.4 22:32:48 10° SSE 22:38:41 47° E 22:44:32 10° NNE
CZ-4C R/B 3.2 22:35:44 10° SSE 22:39:09 60° ENE 22:42:37 10° N
ERBS 4.4 22:38:38 11° SE 22:39:19 11° SE 22:40:33 10° ESE
Cosmos 292 Rocket 3.8 22:38:19 10° NNW 22:43:07 82° WSW 22:47:49 10° SSE
NOSS 0 Rocket 4.0 22:37:10 10° NNW 22:43:22 86° ENE 22:49:19 11° SSE
USA 32 4.1 22:39:23 10° N 22:44:42 77° E 22:49:57 10° S
Cosmos 1980 3.8 22:40:01 10° NNW 22:45:42 74° ENE 22:51:01 12° SE
Cosmos 1271 Rocket 2.7 22:42:51 10° NNW 22:46:42 90° NNE 22:50:33 10° S
Landsat 7 3.8 22:44:50 10° SSE 22:49:35 79° ENE 22:54:22 10° NNW
Meteor 1-4 Rocket 2.8 22:46:45 10° NNW 22:50:32 75° W 22:54:13 10° S
Cosmos 1346 4.4 22:49:27 14° SE 22:51:25 25° E 22:54:01 10° NE
Cosmos 2219 3.4 22:50:01 10° SSW 22:55:47 79° WNW 23:01:34 10° NNE
Cosmos 1703 3.3 22:52:18 10° S 22:56:09 61° E 23:00:02 10° NNE
SL-14 R/B 3.5 22:52:30 10° SSW 22:56:29 77° WNW 23:00:32 10° N
Cosmos 2242 Rocket 3.8 22:52:38 10° NNW 22:57:06 71° W 23:01:35 10° S
Cosmos 2237 Rocket 2.3 22:52:31 10° NNW 22:58:16 83° ENE 23:03:21 13° SSE
Meteor 2-10 4.3 22:53:49 10° NNW 22:59:34 88° W 23:05:09 11° S
Iridium 2 3.7 22:57:23 11° S 23:01:05 67° E 23:04:56 10° N
ATLAS 2AS CENTAUR R/B 3.7 22:54:28 10° S 23:01:05 34° ESE 23:08:05 10° NE
Lacrosse 4 Rocket 2.5 22:57:50 10° NNW 23:02:01 41° NE 23:06:05 11° ESE
Cosmos 1862 Rocket 3.6 22:58:55 10° N 23:03:17 66° ENE 23:06:53 14° SSE
CZ-4C R/B 4.1 22:57:52 10° NW 23:03:47 34° NNE 23:10:23 10° E
Terra 1.8 23:01:11 13° SSE 23:05:27 80° ENE 23:10:15 10° NNW
Cosmos 2082 4.2 23:01:54 10° S 23:07:11 40° ESE 23:12:30 10° NE
Cosmos 1937 Rocket 3.5 23:03:17 10° S 23:08:28 66° ESE 23:13:38 10° NNE
Sich 1 3.4 23:04:17 10° SSW 23:08:41 67° WNW 23:13:05 10° N
Cosmos 2360 Rocket 4.5 23:05:14 10° WNW 23:08:45 17° W 23:12:17 10° SW
CARTOSAT-1 3.6 23:05:23 14° SSE 23:09:09 89° ENE 23:13:31 10° NNW
Spot 4 4.0 23:05:42 14° SSE 23:09:50 71° ENE 23:14:42 10° N
Cosmos 2298 Rocket 4.2 23:05:32 10° SSW 23:10:52 79° WNW 23:16:14 10° NNE
Cosmos 2058 4.3 23:07:48 10° SW 23:11:38 37° WNW 23:15:29 10° N
ATLAS 3B R/B 2.9 23:05:06 10° NW 23:12:18 74° NE 23:18:29 13° SE
Cosmos 1633 Rocket 3.4 23:08:13 10° SSW 23:12:34 65° WNW 23:16:56 10° N
Cosmos 1626 2.5 23:10:26 15° SSE 23:13:18 49° E 23:16:57 10° NNE
Cosmos 990 Rocket 4.0 23:14:06 10° S 23:19:08 59° ESE 23:24:13 10° NNE
USA 238 DEB 4.4 23:14:58 10° NW 23:21:53 53° NE 23:28:45 10° ESE
USA 238 4.4 23:15:05 10° NW 23:21:59 53° NE 23:28:50 10° ESE
Tiangong 1 2.8 23:20:04 10° SSW 23:21:28 16° S 23:21:28 16° S
FALCON 9 R/B 4.2 23:02:49 10° WSW 23:24:07 37° SSW 23:30:02 15° SE
NOSS 3-1 (C) 3.6 23:18:44 10° SW 23:24:46 84° NW 23:31:37 10° NE
CZ-4 R/B 4.4 23:20:07 10° N 23:25:01 61° WNW 23:29:49 10° SSW
Cosmos 1933 3.7 23:24:07 10° N 23:28:06 51° ENE 23:30:44 20° SSE
Cosmos 1269 Rocket 4.1 23:25:36 10° NNW 23:30:57 76° ENE 23:34:54 18° SSE
COSMOS 2455 2.9 23:25:39 10° NW 23:31:44 85° NE 23:36:29 17° SE
H-2A R/B 2.6 23:29:19 13° S 23:34:03 57° W 23:39:27 10° NNW
Cosmos 389 Rocket 3.7 23:32:45 10° N 23:36:01 31° ENE 23:37:58 18° ESE
Cosmos 2227 Rocket 2.2 23:35:37 10° SSW 23:41:14 72° ESE 23:46:55 10° NNE
IGS 5A 4.2 23:42:08 15° SSW 23:45:18 45° W 23:49:21 10° NNW
Cosmos 1455 3.2 23:42:29 10° NNW 23:46:05 41° W 23:48:54 15° SSW
CZ-4B R/B 3.6 23:44:29 12° ESE 23:46:33 18° ENE 23:48:55 10° NNE
GEOS 3 Rocket 4.0 23:44:09 13° ESE 23:48:50 62° NE 23:53:57 10° NW
ALOS 2 3.9 23:46:38 15° ESE 23:49:36 30° ENE 23:53:25 10° N
Cosmos 2333 Rocket 3.2 23:45:47 10° NW 23:51:04 38° WSW 23:55:18 15° S
SL-16 R/B 2.2 23:46:05 10° NNW 23:51:48 85° WSW 23:55:45 21° SSE
SeaSat 1 2.6 23:49:07 19° SE 23:52:42 71° ENE 23:57:38 10° NNW
Cosmos 1048 Rocket 4.1 23:48:50 10° NNW 23:54:13 88° WSW 23:57:50 22° SSE
